Flag for Switzerland Weather past 2 weeks in Bern, Bern, Switzerland

Now
12 °F

Clear.


Feels Like: 12 °F
Forecast: 19 / 30 °F
Wind: 2 mph from South

Location: Bern / Belp

Current Time: Dec 29, 2014 at 8:33:54 AM

Latest Report: Dec 29, 2014 at 7:50 AM


Visibility: 10 mi

Pressure: 30.48 "Hg

Humidity: 92%

Dew point: 10 °F

Location of BernLocation

Historic Weather in Bern — Graph

°F

Bern temperature yesterday

Maximum temperature yesterday: 36 °F (at 12:20 AM)
Minimum temperature yesterday: 23 °F (at 11:50 PM)
Average temperature yesterday: 30 °F

Past Weeks' High & Low Weather Summary

 TemperatureHumidityPressure
High54 °F (Dec 19, 2:20 PM)100% (Dec 14, 7:20 AM)30.54 "Hg (Dec 14, 7:20 AM)
Low10 °F (Dec 29, 6:50 AM)47% (Dec 23, 2:20 PM)29.53 "Hg (Dec 28, 12:20 AM)
Average37 °F89%30.18 "Hg
* Reported Dec 14 7:20 AM — Dec 29 7:20 AM, Bern, Weather by CustomWeather, © 2014

Note: Actual official high and low records may vary slightly from our data, if they occured in-between our weather recording intervals... More about our weather records

Advertising

Bern weather history for previous 24 hours

 ConditionsComfort  
Time TempWeatherWind HumidityBarometerVisibility
7:20 AM
Dec 29
10 °FIce fog.1 mph92%30.48 "Hg2 mi
6:50 AM10 °FIce fog.1 mph92%30.48 "Hg3 mi
6:20 AM12 °FCold.3 mph92%30.45 "Hg3 mi
5:50 AM14 °FCold.3 mph92%30.45 "Hg4 mi
5:20 AM12 °FClear.1 mph85%30.45 "Hg10 mi
4:50 AM18 °FClear.2 mph79%30.45 "Hg10 mi
4:20 AM18 °FClear.1 mph79%30.42 "Hg10 mi
3:50 AM18 °FClear.7 mph79%30.42 "Hg10 mi
3:20 AM19 °FClear.7 mph79%30.42 "Hg10 mi
2:50 AM19 °FPassing clouds.5 mph79%30.39 "HgN/A
2:20 AM21 °FCold.3 mph74%30.39 "HgN/A
1:50 AM21 °FPassing clouds.6 mph80%30.36 "HgN/A
1:20 AM23 °FOvercast.5 mph74%30.36 "HgN/A
12:50 AM23 °FPartly cloudy.5 mph80%30.36 "HgN/A
12:20 AM23 °FPassing clouds.6 mph80%30.33 "HgN/A
11:50 PM
Dec 28
23 °FPassing clouds.6 mph80%30.33 "HgN/A
11:20 PM25 °FPartly cloudy.9 mph80%30.30 "HgN/A
10:20 PM25 °FPartly cloudy.6 mph80%30.27 "HgN/A
9:50 PM25 °FPartly cloudy.6 mph80%30.24 "HgN/A
9:20 PM25 °FPartly cloudy.8 mph80%30.24 "Hg5 mi
8:50 PM25 °FLight snow. Partly cloudy.8 mph86%30.21 "Hg5 mi
8:20 PM25 °FLight snow. Passing clouds.7 mph86%30.21 "Hg4 mi
7:50 PM27 °FLight snow. Partly cloudy.6 mph74%30.18 "Hg4 mi
7:20 PM25 °FLight snow. Partly cloudy.7 mph80%30.15 "Hg4 mi
6:50 PM27 °FLight snow. Partly cloudy.7 mph74%30.12 "Hg3 mi
6:20 PM27 °FLight snow. Partly cloudy.5 mph80%30.09 "Hg2 mi
5:50 PM27 °FLight snow. Partly cloudy.6 mph80%30.09 "Hg2 mi
5:20 PM27 °FLight snow. Mostly cloudy.3 mph80%30.07 "Hg3 mi
4:50 PM27 °FLight snow. Mostly cloudy.8 mph86%30.07 "Hg3 mi
4:20 PM28 °FLight snow. Broken clouds.6 mph80%30.04 "Hg3 mi
3:50 PM28 °FLight snow. Broken clouds.5 mph80%30.01 "Hg3 mi
3:20 PM28 °FLight snow. Broken clouds.6 mph80%30.01 "Hg1 mi
2:50 PM28 °FLight snow. Broken clouds.5 mph86%29.95 "Hg2 mi
2:20 PM28 °FLight snow. Broken clouds.6 mph86%29.92 "Hg4 mi
1:50 PM28 °FLight snow. Broken clouds.9 mph86%29.92 "Hg4 mi
1:20 PM30 °FLight snow. Broken clouds.6 mph80%29.89 "Hg3 mi
12:50 PM30 °FLight snow. Partly sunny.9 mph86%29.86 "Hg2 mi
12:20 PM30 °FLight snow. Partly sunny.7 mph86%29.83 "Hg2 mi
11:50 AM30 °FLight snow. Partly sunny.7 mph86%29.83 "Hg3 mi
11:20 AM30 °FLight snow. Broken clouds.6 mph86%29.80 "Hg4 mi
10:50 AM32 °FLight snow. Broken clouds.8 mph87%29.77 "Hg3 mi
10:20 AM32 °FSnow. Broken clouds.5 mph93%29.77 "Hg1 mi
9:50 AM32 °FSnow. Broken clouds.6 mph93%29.74 "Hg1 mi
9:20 AM32 °FSnow. Broken clouds.6 mph93%29.71 "Hg1 mi
8:50 AM32 °FSnow. Broken clouds.3 mph93%29.71 "Hg1 mi
8:20 AM32 °FLight snow. Broken clouds.5 mph93%29.68 "Hg1 mi
Weather by CustomWeather, © 2014

See weather overviewHow to use our weather pages